sat.trackr.live / text

‹ back to catalog

INSAT-3D

NORAD 39216 · 2013-038B

PAYLOAD ACTIVE UNKNOWN

§ Identity

Operator
Country
IND
Launch date
2013-07-25
Launch site
FRGUI
Launch vehicle
Mass (kg)
RCS (m²)
22.16

Purposes: comms, earth_obs

External: N2YO · Heavens-Above · Gunter

§ Orbital elements

Epoch: 2026-09-20T00:25:45.910272Z

Period
1,436.13 min
Inclination
2.1634°
Eccentricity
0.0001364
Mean motion
1.00269700 rev/d
Perigee alt
35,781.4 km
Apogee alt
35,792.9 km
Semi-major
42,165.3 km
B*
0.0000e+0
RAAN
81.2355°
Arg perigee
110.8970°
Mean anomaly
302.7400°
Rev number
4,803

§ Raw data

INSAT-3D1 39216U 13038B   26263.01789248 -.00000343  00000+0  00000+0 0  99932 39216   2.1634  81.2355 0001364 110.8970 302.7400  1.00269700 48039

JSON: /api/v1/satellites/39216 · /tle

For live sub-satellite position, see the globe view (requires WebGL).

§ Visibility from observer

Set your observer location to see the next 7 days of passes ≥ 10°. The values pass through the URL so the page stays shareable.

No JS? Fill the form by hand. The geolocation button needs JavaScript.